TimeCST,TemperatureF,Dew PointF,Humidity,Sea Level PressureIn,VisibilityMPH,Wind Direction,Wind SpeedMPH,Gust SpeedMPH,PrecipitationIn,Events,Conditions,WindDirDegrees,DateUTC
12:15 AM,16.2,12.2,84,29.93,10.0,North,5.8,-,N/A,,Overcast,360,2013-01-31 06:15:00
12:35 AM,15.3,11.7,86,29.93,10.0,Calm,Calm,-,N/A,,Mostly Cloudy,0,2013-01-31 06:35:00
12:55 AM,16.0,12.4,86,29.93,10.0,Calm,Calm,-,N/A,,Overcast,0,2013-01-31 06:55:00
1:15 AM,15.8,12.2,86,29.93,10.0,North,3.5,-,N/A,,Mostly Cloudy,10,2013-01-31 07:15:00
1:35 AM,14.5,11.3,87,29.93,10.0,Calm,Calm,-,N/A,,Mostly Cloudy,0,2013-01-31 07:35:00
1:55 AM,17.1,13.1,84,29.94,10.0,North,8.1,-,N/A,,Overcast,10,2013-01-31 07:55:00
2:15 AM,18.7,13.3,79,29.94,10.0,NNE,4.6,-,N/A,,Overcast,20,2013-01-31 08:15:00
2:35 AM,18.9,12.9,78,29.95,10.0,North,5.8,-,N/A,,Overcast,360,2013-01-31 08:35:00
2:55 AM,17.4,11.7,78,29.95,10.0,North,5.8,-,N/A,,Mostly Cloudy,10,2013-01-31 08:55:00
3:15 AM,17.1,11.3,78,29.95,10.0,North,8.1,-,N/A,,Scattered Clouds,360,2013-01-31 09:15:00
3:35 AM,16.9,11.7,80,29.96,10.0,North,8.1,-,N/A,,Mostly Cloudy,360,2013-01-31 09:35:00
3:55 AM,16.7,11.5,80,29.97,10.0,North,6.9,-,N/A,,Mostly Cloudy,350,2013-01-31 09:55:00
4:15 AM,16.5,11.8,82,29.97,10.0,NNW,6.9,-,N/A,,Overcast,340,2013-01-31 10:15:00
4:35 AM,16.7,11.5,80,29.98,10.0,North,13.8,-,N/A,,Overcast,350,2013-01-31 10:35:00
4:55 AM,17.1,10.4,75,29.99,10.0,NNW,13.8,-,N/A,,Overcast,340,2013-01-31 10:55:00
5:15 AM,16.7,10.4,76,30.00,10.0,NNW,8.1,-,N/A,,Overcast,340,2013-01-31 11:15:00
5:35 AM,15.3,7.2,70,30.03,10.0,NNW,16.1,-,N/A,,Mostly Cloudy,340,2013-01-31 11:35:00
5:55 AM,14.0,6.8,73,30.04,10.0,North,11.5,-,N/A,,Mostly Cloudy,350,2013-01-31 11:55:00
6:15 AM,13.5,5.7,71,30.04,10.0,North,17.3,21.9,N/A,,Scattered Clouds,350,2013-01-31 12:15:00
6:35 AM,14.0,6.8,73,30.05,10.0,North,9.2,-,N/A,,Mostly Cloudy,350,2013-01-31 12:35:00
6:55 AM,13.5,5.9,72,30.06,10.0,NNW,8.1,-,N/A,,Overcast,330,2013-01-31 12:55:00
7:15 AM,13.5,5.9,72,30.07,10.0,NNW,9.2,-,N/A,,Overcast,330,2013-01-31 13:15:00
7:35 AM,12.9,5.7,73,30.08,10.0,NNW,10.4,-,N/A,,Overcast,330,2013-01-31 13:35:00
7:55 AM,12.7,5.7,74,30.08,10.0,NNW,8.1,-,N/A,,Overcast,330,2013-01-31 13:55:00
8:15 AM,12.9,5.9,74,30.10,10.0,NNW,10.4,-,N/A,,Overcast,330,2013-01-31 14:15:00
8:35 AM,13.5,6.6,74,30.11,10.0,NW,12.7,-,N/A,,Overcast,320,2013-01-31 14:35:00
8:55 AM,14.0,7.0,74,30.12,10.0,NNW,13.8,-,N/A,,Overcast,330,2013-01-31 14:55:00
9:15 AM,14.5,7.2,73,30.15,10.0,NNW,19.6,23.0,N/A,,Overcast,340,2013-01-31 15:15:00
9:35 AM,14.2,6.4,71,30.16,7.0,NNW,25.3,-,N/A,,Overcast,330,2013-01-31 15:35:00
9:55 AM,14.4,6.8,72,30.18,10.0,NNW,19.6,27.6,N/A,,Overcast,330,2013-01-31 15:55:00
10:15 AM,14.5,5.7,68,30.20,10.0,NNW,24.2,27.6,N/A,,Overcast,330,2013-01-31 16:15:00
10:35 AM,14.2,3.9,64,30.21,5.0,NNW,23.0,32.2,N/A,,Haze,330,2013-01-31 16:35:00
10:55 AM,12.9,2.7,64,30.24,5.0,NNW,27.6,33.4,N/A,,Haze,340,2013-01-31 16:55:00
11:15 AM,13.5,3.6,65,30.25,7.0,NNW,25.3,28.8,N/A,,Scattered Clouds,330,2013-01-31 17:15:00
11:35 AM,12.6,2.1,63,30.26,5.0,NNW,21.9,-,N/A,,Haze,340,2013-01-31 17:35:00
11:55 AM,12.7,2.1,63,30.27,3.0,NNW,27.6,-,N/A,,Haze,330,2013-01-31 17:55:00
12:15 PM,12.0,0.9,61,30.27,5.0,NW,26.5,-,N/A,,Haze,320,2013-01-31 18:15:00
12:35 PM,12.7,1.4,61,30.28,5.0,NNW,26.5,31.1,N/A,,Haze,330,2013-01-31 18:35:00
12:55 PM,13.1,1.4,60,30.29,7.0,NNW,24.2,29.9,N/A,,Clear,330,2013-01-31 18:55:00
1:15 PM,13.1,1.6,60,30.29,7.0,NW,19.6,23.0,N/A,,Clear,320,2013-01-31 19:15:00
1:35 PM,13.5,1.0,58,30.29,7.0,NNW,23.0,-,N/A,,Clear,330,2013-01-31 19:35:00
1:55 PM,13.5,0.9,57,30.29,10.0,NNW,19.6,25.3,N/A,,Clear,340,2013-01-31 19:55:00
2:15 PM,13.8,1.6,58,30.29,10.0,NNW,18.4,23.0,N/A,,Clear,330,2013-01-31 20:15:00
2:35 PM,14.0,1.2,57,30.30,10.0,NNW,20.7,-,N/A,,Clear,330,2013-01-31 20:35:00
2:55 PM,14.4,1.6,57,30.30,10.0,NNW,18.4,23.0,N/A,,Clear,340,2013-01-31 20:55:00
3:15 PM,14.4,1.2,56,30.30,10.0,NNW,18.4,-,N/A,,Clear,340,2013-01-31 21:15:00
3:35 PM,14.2,0.9,56,30.31,10.0,NNW,17.3,-,N/A,,Clear,330,2013-01-31 21:35:00
3:55 PM,14.2,0.3,54,30.32,10.0,NNW,18.4,24.2,N/A,,Clear,330,2013-01-31 21:55:00
4:15 PM,14.0,-0.4,53,30.32,10.0,NNW,17.3,20.7,N/A,,Clear,340,2013-01-31 22:15:00
4:35 PM,13.6,-0.8,53,30.33,10.0,NNW,13.8,-,N/A,,Clear,330,2013-01-31 22:35:00
4:55 PM,12.9,-1.5,53,30.33,10.0,NNW,13.8,-,N/A,,Clear,340,2013-01-31 22:55:00
5:15 PM,11.8,-1.3,56,30.33,10.0,NNW,11.5,-,N/A,,Clear,340,2013-01-31 23:15:00
5:35 PM,10.4,-1.7,58,30.33,10.0,NNW,9.2,-,N/A,,Clear,340,2013-01-31 23:35:00
5:55 PM,8.4,-2.7,61,30.34,10.0,NNW,6.9,-,N/A,,Clear,340,2013-01-31 23:55:00
6:15 PM,5.5,-3.6,66,30.34,10.0,North,9.2,-,N/A,,Clear,350,2013-02-01 00:15:00
6:35 PM,4.6,-4.5,66,30.34,10.0,NNW,5.8,-,N/A,,Clear,340,2013-02-01 00:35:00
6:55 PM,3.6,-5.1,67,30.35,10.0,NNW,4.6,-,N/A,,Clear,340,2013-02-01 00:55:00
7:15 PM,1.9,-6.2,69,30.36,10.0,NW,3.5,-,N/A,,Clear,310,2013-02-01 01:15:00
7:35 PM,3.7,-5.6,65,30.36,10.0,NW,4.6,-,N/A,,Clear,320,2013-02-01 01:35:00
7:55 PM,2.3,-5.1,71,30.37,10.0,NW,3.5,-,N/A,,Clear,310,2013-02-01 01:55:00
8:15 PM,0.5,-7.1,70,30.37,10.0,NW,3.5,-,N/A,,Clear,310,2013-02-01 02:15:00
8:35 PM,3.7,-6.0,64,30.37,10.0,NW,5.8,-,N/A,,Clear,320,2013-02-01 02:35:00
8:55 PM,2.5,-6.0,68,30.38,10.0,Calm,Calm,-,N/A,,Clear,0,2013-02-01 02:55:00
9:15 PM,-0.4,-7.4,72,30.40,10.0,WSW,5.8,-,N/A,,Clear,240,2013-02-01 03:15:00
9:35 PM,-0.4,-6.0,77,30.41,10.0,WNW,3.5,-,N/A,,Clear,300,2013-02-01 03:35:00
9:55 PM,-0.4,-6.9,74,30.42,10.0,NW,5.8,-,N/A,,Clear,320,2013-02-01 03:55:00
10:15 PM,-4.2,-9.8,77,30.42,10.0,West,3.5,-,N/A,,Clear,280,2013-02-01 04:15:00
10:35 PM,-2.7,-8.5,76,30.42,10.0,Calm,Calm,-,N/A,,Clear,0,2013-02-01 04:35:00
10:55 PM,-0.2,-5.8,77,30.42,10.0,WSW,3.5,-,N/A,,Clear,240,2013-02-01 04:55:00
11:15 PM,0.1,-6.5,74,30.42,10.0,WSW,5.8,-,N/A,,Scattered Clouds,250,2013-02-01 05:15:00
11:35 PM,1.2,-5.4,74,30.42,10.0,SW,4.6,-,N/A,,Overcast,220,2013-02-01 05:35:00
11:55 PM,1.4,-4.0,78,30.43,10.0,Calm,Calm,-,N/A,,Overcast,0,2013-02-01 05:55:00